Location: Newark
(41.6500°N, 71.4833°W)
Time: 01:10:19
(UTC+00:00)

Transit 2A Rocket - Pass Details

Date: 01 February 2020
Orbit: 591 x 912 km, 66.7° (Epoch: 27 February)

Event Time Altitude Azimuth Distance (km) Brightness Sun altitude
Rises 07:32:45 0° 187° (S) 2,837 - -49.2°
Reaches altitude 10° 07:35:08 10° 179° (S) 1,922 - -48.8°
Maximum altitude 07:39:02 35° 113° (ESE) 959 - -48.1°
Drops below altitude 10° 07:42:58 10° 47° (NE) 1,939 - -47.4°
Sets 07:45:22 0° 39° (NE) 2,867 - -47.0°
